Regional Weather Roundup
Issued by NWS Huntsville, AL

Home | Current Version | Previous Version | Text Only | Print | Product List | Glossary On
Versions: 1 2 3 4 5 6 7 8 9 10 11 12 13 14 15 16 17 18 19 20 21 22 23 24 25 26 27 28 29 30 31 32 33 34 35 36 37 38 39 40 41 42 43 44 45 46 47 48 49 50
000
ASUS44 KHUN 070110
RWRHUN

WEATHER ROUNDUP FOR THE TENNESSEE VALLEY
NATIONAL WEATHER SERVICE HUNTSVILLE AL
700 PM CST FRI MAR 06 2015

ALZ001>004-070200-
NORTHWEST ALABAMA

CITY           SKY/WX    TMP DP  RH WIND       PRES   REMARKS
SHOALS AIRPORT CLEAR     34  25  69 SE3       30.48S
$$

ALZ005>007-016-070200-
NORTH CENTRAL ALABAMA

CITY           SKY/WX    TMP DP  RH WIND       PRES   REMARKS
DECATUR AP     CLEAR     31  25  78 CALM      30.49R
HUNTSVILLE AP  CLEAR     36  20  52 N5        30.48R WCI  32
HUN NWS/UAH      N/A     34  19  55 NE3         N/A
MERIDIANVILLE  CLEAR     32  23  69 CALM      30.47S
REDSTONE ARSN  CLEAR     32  22  66 VRB2      30.47R
VINEMONT AP    FAIR      30  23  75 CALM      30.48R
$$

ALZ008>010-070200-
NORTHEAST ALABAMA

CITY           SKY/WX    TMP DP  RH WIND       PRES   REMARKS
ALBERTVILLE    CLEAR     34  27  75 NW5       30.44R WCI  30
FORT PAYNE     CLEAR     32  21  64 E3        30.44R
SCOTTSBORO AP  CLEAR     36  18  48 CALM      30.47R
SCOTTSBORO HCN   N/A     34 N/A N/A MISG        N/A
VALLEY HEAD      N/A     30 N/A N/A MISG        N/A
$$

TNZ076-096-097-070200-
SOUTHEASTERN MIDDLE TENNESSEE

CITY           SKY/WX    TMP DP  RH WIND       PRES   REMARKS
TULLAHOMA      CLEAR     28  19  69 CALM        N/A
WINCHESTER     CLEAR     30  19  64 NW3       30.46S
$$

...SURROUNDING SITES...

CITY           SKY/WX    TMP DP  RH WIND       PRES   REMARKS
ATLANTA        PTCLDY    43  28  55 NW9       30.40R
ANNISTON       CLEAR     38  29  70 CALM      30.45R
BIRMINGHAM     PTCLDY    34  21  59 N6        30.48R WCI  29
CHATTANOOGA    CLEAR     37  25  61 NW5       30.45R WCI  33
CORINTH        FAIR      34   9  35 W3        30.48R
DALTON         CLEAR     34  21  60 CALM      30.45R
GADSDEN        CLEAR     36  18  48 NW6       30.45R WCI  31
GOLDEN TRNGL   CLEAR     37  19  48 N6        30.48F WCI  33
HALEYVILLE       N/A     28  23  81 CALM      30.49R
JACKSON TN     CLEAR     29  13  51 CALM      30.48S
LEWISBURG      FAIR      27  22  81 CALM      30.46S
MEMPHIS        CLEAR     33  16  49 SW3       30.50R
MURFREESBORO   FAIR      30  21  69 S5        30.46S WCI  25
NASHVILLE      CLEAR     31  17  56 CALM      30.47S
OXFORD MS      FAIR      32  19  59 CALM      30.50F
ROME           CLEAR     37  29  72 NW3       30.43R
SAVANNAH       CLEAR     28  18  64 CALM      30.48R
TUPELO         CLEAR     36  20  52 CALM      30.49R
TUSCALOOSA     CLEAR     40  19  43 N6        30.49R
$$

...GULF COAST WEATHER...

CITY           SKY/WX    TMP DP  RH WIND       PRES   REMARKS
GULFPORT       MOCLDY    50  16  25 N6        30.42R
PASCAGOULA     MOCLDY    44  24  45 CALM      30.42R
MOBILE         MOCLDY    46  17  31 N8        30.43R
GULF SHORES    MOCLDY    47  26  42 N3        30.41R
PENSACOLA      CLOUDY    50  28  42 N8        30.40R
DESTIN         CLOUDY    52  35  52 N9        30.39R
PANAMA CITY    MOCLDY    46  39  78 NE8       30.37R
APPALACHICOLA  CLOUDY    49  40  71 NE14      30.36R
$$




USA.gov is the U.S. government's official web portal to all federal, state and local government web resources and services.